Location: Apeadero de Los Molinos-Guadarrama
(40.7091°N, 4.0689°W)
Time: 11:54:31
(UTC+00:00)

Cosmos 2327 Rocket - Pass Details

Date: 14 May 2021
Orbit: 944 x 1008 km, 83.0° (Epoch: 18 June)

Event Time Altitude Azimuth Distance (km) Brightness Sun altitude
Rises 21:59:10 0° 352° (N) 3,743 8.6 -22.9°
Reaches altitude 10° 22:01:43 10° 352° (N) 2,792 7.8 -23.1°
Maximum altitude 22:08:09 87° 265° (W) 1,014 4.5 -23.8°
Enters shadow 22:10:14 47° 177° (S) 1,317 4.8 -24.0°
